Weather in Matus

Ukraine / Cherkassi District     49°03′00″N   31°33′38″E
temp.,
°C
wind,
m/s
gust,
m/s
humid.,
%
clouds,
%
prec.,
mm/h
press.,
hPa
HPBL,
m
20 june, sun
sun2000:00+19e51289100 0.5 1016399
03:00+18ne51196100 0.8 1016355
06:00+18ene61293100 0.1 1015407
09:00+20ene71379100 0.1 1014674
12:00+22e7107078 1.4 1014950
15:00+22e51073100 1.4 1014622
18:00+24e6107143 0.0 10131193
21:00+20e5107946 0.1 1014276
21 june, mon
mon2100:00+19ene4108821 0.1 1013295
03:00+17e36964 0.1 1013142
06:00+17e2495100 0.0 1013108
09:00+22ene338175 0.0 1013452
12:00+26e34687 0.0 1012878
15:00+27e336367 0.0 10121446
18:00+26ene347244 0.3 1012592
21:00+22ene47865 0.3 1012111
22 june, tue
tue2200:00+21e349121 0.0 101365
03:00+20e3391100 0.0 101340
06:00+19n3588100 0.0 101291
09:00+23ne567736 0.0 1013396
12:00+26ene576480 0.0 1012731
15:00+27e5665100 0.0 10121143
18:00+27ene5872100 0.0 1012613
21:00+22e49809 0.0 1013174
23 june, wed
wed2300:00+20e357562 0.0 101472
03:00+19e338229 0.0 101433
06:00+19ne338425 0.0 101348
09:00+24ne577642 0.0 1013394
12:00+27e456235 0.0 1014877
15:00+28ene336398 0.0 10141015
18:00+28e2367100 0.0 10141154
21:00+23ne478716 0.6 1015117
24 june, thu
thu2400:00+22e3590100 0.2 101690
03:00+21sse348885 0.2 101655
06:00+22ne1284100 0.0 101615
09:00+25ne237486 0.0 1016270
12:00+29ene455932 0.0 1017815
15:00+30ene345313 0.0 10161228
18:00+29e47615 0.0 1016425
21:00+23ese47762 0.0 1017101